Regional Weather Roundup
Issued by NWS Portland, ME

Current Version | Previous Version | Text Only | Print | Product List | Glossary Off
Versions: 1 2 3 4 5 6 7 8 9 10 11 12 13 14 15 16 17 18 19 20 21 22 23 24 25 26 27 28 29 30 31 32 33 34 35 36 37 38 39 40 41 42 43 44 45 46 47 48 49 50
621 ASUS41 KGYX 222310 RWRGYX WEATHER ROUNDUP FOR MAINE AND NEW HAMPSHIRE NATIONAL WEATHER SERVICE GRAY ME 700 PM EDT FRI SEP 22 2017 MEZ002-005-006-010-012-015-018-020-021-024-026-027-029-230000- MAINE CITY SKY/WX TMP DP RH WIND PRES REMARKS PORTLAND MOCLDY 68 50 52 VRB6 30.05F SANFORD CLOUDY 66 55 67 N6 30.05F BAR HARBOR CLOUDY 66 49 54 CALM 30.07S WISCASSET CLOUDY 67 56 67 CALM 30.07S ROCKLAND CLOUDY 63 55 75 CALM 30.06S FRYEBURG CLOUDY 64 57 78 W3 30.07F LEWISTONAUBURN MOCLDY 65 52 62 CALM 30.07R AUGUSTA CLEAR 68 49 50 N5 30.07F WATERVILLE PTCLDY 67 49 52 NE7 30.05F BANGOR PTCLDY 67 48 50 CALM 30.08S GREENVILLE N/A 62 42 47 CALM 30.10S MILLINOCKET CLEAR 60 51 72 CALM 30.10S HOULTON CLEAR 55 51 86 CALM 30.08S PRESQUE ISLE CLEAR 62 54 74 CALM 30.09F FRENCHVILLE CLEAR 66 45 46 S7 30.07F CARIBOU CLEAR 66 45 46 CALM 30.08F $$ NHZ002-005-008-009-011-012-014-230000- NEW HAMPSHIRE CITY SKY/WX TMP DP RH WIND PRES REMARKS PORTSMOUTH LGT RAIN 65 53 65 NE8 30.04R FOG ROCHESTER CLOUDY 65 52 62 N5 30.04F NASHUA CLOUDY 68 55 63 N9G16 30.04S MANCHESTER CLOUDY 69 53 56 N8 30.02F CONCORD CLOUDY 69 49 48 NE3 30.05S LACONIA MOCLDY 67 48 50 NE5 30.07S PLYMOUTH MOCLDY 64 58 81 CALM 30.06S BERLIN CLEAR 59 50 72 CALM 30.10R WHITEFIELD CLEAR 63 47 55 CALM 30.08S JAFFREY LGT RAIN 65 53 65 MISG 30.06S KEENE MOCLDY 66 53 63 NE3 30.04S LEBANON CLOUDY 67 60 78 CALM 30.04S MT WASHINGTON FOG 52 52 100 E20 N/A VSB 1/16 $$ VTZ005-007-008-230000- VERMONT CITY SKY/WX TMP DP RH WIND PRES REMARKS ST JOHNSBURY N/A 67 51 56 MISG 30.05S MONTPELIER CLEAR 64 54 69 CALM 30.12R BURLINGTON PTCLDY 72 53 51 NW5 30.07R $$ MAZ007-012-024-CTZ003-RIZ002-NYZ038-NYZ072-230000- SOUTHERN NEW ENGLAND AND NY CITY SKY/WX TMP DP RH WIND PRES REMARKS BOSTON CLOUDY 59 57 93 N21G31 29.99S WORCESTER CLOUDY 60 54 80 NE12G23 30.02S NANTUCKET LGT RAIN 62 62 100 NE25G39 29.80R FOG PROVIDENCE CLOUDY 61 60 97 N17G38 29.95F HARTFORD MOCLDY 73 57 57 N14G23 29.98S ALBANY PTCLDY 72 49 44 N3 30.03S NEW YORK CITY MOCLDY 78 58 49 N15G22 29.93S $$ ANZ081-ANZ082-ANZ150-NHZ014-MEZ023>029-230000- COASTAL MARINE OBSERVATIONS STATION/POSITION TIME TEMP WIND PRES WAVE AIR SEA DIR/SP/G HT/PER (UTC) (F) (DEG/KT/KT) (MB) (FT/S) MOUNT DESERT ROC 2300 58 40/ 16/ 18 1017.8R MATINICUS ROCK 2200 57 60/ 19/ 20 1017.0F ISLE OF SHOALS 2200 59 30/ 22/ 26 1016.2R JEFFREYS LEDGE 2236 62 N/A 12/10 GEORGES BANK BUO 2150 73 72 1009.6 11/ 9 $$ .............KEY.............. WCI - WIND CHILL TC - TEMPERATURE IN CELSIUS VSB - VISIBILITY IN MILES HX - HEAT INDEX FAIR- INDICATES FEW OR NO CLOUDS BELOW 12,000 FT, WITH NO SIGNIFICANT WEATHER AND/OR OBSTRUCTIONS TO VISIBILITY.

USA.gov is the U.S. government's official web portal to all federal, state and local government web resources and services.